Time,TemperatureF,DewpointF,PressureIn,WindDirection,WindDirectionDegrees,WindSpeedMPH,WindSpeedGustMPH,Humidity,HourlyPrecipIn,Conditions,Clouds,dailyrainin,SoftwareType,DateUTC
2013-06-01 00:57:00,68.5,63.8,28.94,SSW,203,0.0,0.0,85,0.00,,,0.00,WUHU21623XXSP,2013-06-01 05:57:00,
2013-06-01 01:57:00,68.2,63.9,28.91,SW,225,0.0,0.0,86,0.00,,,0.00,WUHU21623XXSP,2013-06-01 06:57:00,
2013-06-01 02:57:00,67.8,63.5,28.92,WSW,248,0.0,0.0,86,0.00,,,0.00,WUHU21623XXSP,2013-06-01 07:57:00,
2013-06-01 03:57:00,66.7,62.1,28.90,SW,225,0.0,0.0,85,0.00,,,0.00,WUHU21623XXSP,2013-06-01 08:57:00,
2013-06-01 04:57:00,64.9,60.0,28.92,South,180,0.0,0.0,84,0.00,,,0.00,WUHU21623XXSP,2013-06-01 09:57:00,
2013-06-01 05:57:00,63.7,59.1,28.91,South,180,0.0,0.0,85,0.00,,,0.00,WUHU21623XXSP,2013-06-01 10:57:00,
2013-06-01 06:20:00,63.9,59.6,28.92,SW,225,0.0,0.0,86,0.00,,,0.00,WUHU21623XXSP,2013-06-01 11:20:00,
2013-06-01 06:25:00,64.0,59.8,28.92,SSE,157,0.0,0.0,86,0.00,,,0.00,WUHU21623XXSP,2013-06-01 11:25:00,
2013-06-01 06:30:00,64.0,59.8,28.92,SSE,157,0.0,0.0,86,0.00,,,0.00,WUHU21623XXSP,2013-06-01 11:30:00,
2013-06-01 06:35:00,64.0,59.8,28.92,SSE,157,0.0,0.0,86,0.00,,,0.00,WUHU21623XXSP,2013-06-01 11:35:00,
2013-06-01 06:40:00,64.2,60.0,28.93,WSW,247,0.0,3.4,86,0.00,,,0.00,WUHU21623XXSP,2013-06-01 11:40:00,
2013-06-01 06:45:00,64.2,60.0,28.93,SW,225,2.0,3.4,86,0.00,,,0.00,WUHU21623XXSP,2013-06-01 11:45:00,
2013-06-01 06:50:00,64.2,60.0,28.93,SSW,202,0.0,3.4,86,0.00,,,0.00,WUHU21623XXSP,2013-06-01 11:50:00,
2013-06-01 06:55:00,64.2,60.0,28.92,SSE,157,0.0,3.4,86,0.00,,,0.00,WUHU21623XXSP,2013-06-01 11:55:00,
2013-06-01 07:00:00,64.2,60.0,28.92,SSE,157,0.0,0.0,86,0.00,,,0.00,WUHU21623XXSP,2013-06-01 12:00:00,
2013-06-01 07:05:00,64.4,60.5,28.92,South,180,0.0,0.0,87,0.00,,,0.00,WUHU21623XXSP,2013-06-01 12:05:00,
2013-06-01 07:10:00,64.6,60.7,28.92,SW,225,0.0,0.0,87,0.00,,,0.00,WUHU21623XXSP,2013-06-01 12:10:00,
2013-06-01 07:15:00,64.9,61.0,28.93,ESE,112,0.0,0.0,87,0.00,,,0.00,WUHU21623XXSP,2013-06-01 12:15:00,
2013-06-01 07:20:00,64.9,60.8,28.93,SSE,157,8.7,8.7,87,0.00,,,0.00,WUHU21623XXSP,2013-06-01 12:20:00,
2013-06-01 07:25:00,64.9,61.0,28.93,WNW,292,0.0,8.7,87,0.00,,,0.00,WUHU21623XXSP,2013-06-01 12:25:00,
2013-06-01 07:30:00,65.1,61.2,28.94,WSW,247,0.0,8.7,87,0.00,,,0.00,WUHU21623XXSP,2013-06-01 12:30:00,
2013-06-01 07:35:00,65.3,61.3,28.94,WSW,247,0.0,0.0,87,0.00,,,0.00,WUHU21623XXSP,2013-06-01 12:35:00,
2013-06-01 07:40:00,65.3,61.3,28.94,SSW,202,1.8,1.8,87,0.00,,,0.00,WUHU21623XXSP,2013-06-01 12:40:00,
2013-06-01 07:45:00,65.5,61.5,28.94,SSW,202,0.0,2.0,87,0.00,,,0.00,WUHU21623XXSP,2013-06-01 12:45:00,
2013-06-01 07:50:00,65.5,61.5,28.94,SSE,157,0.0,2.0,87,0.00,,,0.00,WUHU21623XXSP,2013-06-01 12:50:00,
2013-06-01 07:55:00,65.7,61.7,28.94,SSE,157,4.9,4.9,87,0.00,,,0.00,WUHU21623XXSP,2013-06-01 12:55:00,
2013-06-01 08:00:00,65.8,61.8,28.94,SE,135,0.0,4.9,87,0.00,,,0.00,WUHU21623XXSP,2013-06-01 13:00:00,
2013-06-01 08:05:00,65.7,61.7,28.94,SW,225,0.0,0.0,87,0.00,,,0.00,WUHU21623XXSP,2013-06-01 13:05:00,
2013-06-01 08:10:00,65.8,61.8,28.94,SSE,157,0.7,0.7,87,0.00,,,0.00,WUHU21623XXSP,2013-06-01 13:10:00,
2013-06-01 08:15:00,65.8,61.5,28.94,SSE,157,0.0,2.7,86,0.00,,,0.00,WUHU21623XXSP,2013-06-01 13:15:00,
2013-06-01 08:20:00,65.8,61.5,28.94,SSE,157,7.6,7.6,86,0.00,,,0.00,WUHU21623XXSP,2013-06-01 13:20:00,
2013-06-01 08:25:00,65.8,61.5,28.94,SW,225,1.3,7.6,86,0.00,,,0.00,WUHU21623XXSP,2013-06-01 13:25:00,
2013-06-01 08:30:00,65.8,61.5,28.95,WNW,292,0.0,1.6,86,0.00,,,0.00,WUHU21623XXSP,2013-06-01 13:30:00,
2013-06-01 08:35:00,65.8,61.5,28.95,SSE,157,0.0,1.6,86,0.00,,,0.00,WUHU21623XXSP,2013-06-01 13:35:00,
2013-06-01 08:40:00,65.8,61.5,28.96,SSE,157,3.4,3.4,86,0.00,,,0.00,WUHU21623XXSP,2013-06-01 13:40:00,
2013-06-01 08:45:00,65.8,61.5,28.96,SW,225,0.0,3.4,86,0.00,,,0.00,WUHU21623XXSP,2013-06-01 13:45:00,
2013-06-01 08:50:00,65.8,61.5,28.96,SSE,157,0.0,0.0,86,0.00,,,0.00,WUHU21623XXSP,2013-06-01 13:50:00,
2013-06-01 08:55:00,65.8,61.5,28.96,SW,225,2.7,2.7,86,0.00,,,0.00,WUHU21623XXSP,2013-06-01 13:55:00,
2013-06-01 09:00:00,66.0,61.7,28.96,WSW,247,0.0,2.7,86,0.00,,,0.00,WUHU21623XXSP,2013-06-01 14:00:00,
2013-06-01 09:05:00,66.0,61.7,28.95,WSW,247,0.0,0.0,86,0.00,,,0.00,WUHU21623XXSP,2013-06-01 14:05:00,
2013-06-01 09:10:00,66.0,61.7,28.96,SSW,202,0.0,0.0,86,0.00,,,0.00,WUHU21623XXSP,2013-06-01 14:10:00,
2013-06-01 09:15:00,66.2,61.7,28.96,SW,225,1.8,2.7,86,0.00,,,0.00,WUHU21623XXSP,2013-06-01 14:15:00,
2013-06-01 09:20:00,66.2,61.8,28.95,South,180,0.0,2.9,86,0.00,,,0.00,WUHU21623XXSP,2013-06-01 14:20:00,
2013-06-01 09:25:00,66.4,61.8,28.95,South,180,0.0,2.9,86,0.00,,,0.00,WUHU21623XXSP,2013-06-01 14:25:00,
2013-06-01 09:30:00,66.4,62.0,28.95,SW,225,0.0,0.0,86,0.00,,,0.00,WUHU21623XXSP,2013-06-01 14:30:00,
2013-06-01 09:35:00,66.4,62.0,28.95,SW,225,0.0,0.0,86,0.00,,,0.00,WUHU21623XXSP,2013-06-01 14:35:00,
2013-06-01 09:40:00,66.4,62.0,28.96,SSE,157,0.0,0.0,86,0.00,,,0.00,WUHU21623XXSP,2013-06-01 14:40:00,
2013-06-01 09:45:00,66.6,61.9,28.95,SSW,202,0.0,0.0,85,0.00,,,0.00,WUHU21623XXSP,2013-06-01 14:45:00,
2013-06-01 09:50:00,66.7,62.1,28.96,West,270,0.0,1.8,85,0.00,,,0.00,WUHU21623XXSP,2013-06-01 14:50:00,
2013-06-01 09:55:00,66.7,62.1,28.95,SSW,202,0.0,1.8,85,0.00,,,0.00,WUHU21623XXSP,2013-06-01 14:55:00,
2013-06-01 10:00:00,67.1,62.4,28.95,SSW,202,0.0,0.0,85,0.00,,,0.00,WUHU21623XXSP,2013-06-01 15:00:00,
2013-06-01 10:05:00,68.0,63.3,28.95,SSW,202,0.0,0.0,85,0.00,,,0.00,WUHU21623XXSP,2013-06-01 15:05:00,
2013-06-01 10:10:00,68.5,63.8,28.95,West,270,0.0,2.7,85,0.00,,,0.00,WUHU21623XXSP,2013-06-01 15:10:00,
2013-06-01 10:15:00,69.1,63.7,28.95,West,270,0.0,2.7,83,0.00,,,0.00,WUHU21623XXSP,2013-06-01 15:15:00,
2013-06-01 10:20:00,69.1,63.3,28.95,WSW,247,0.0,0.0,82,0.00,,,0.00,WUHU21623XXSP,2013-06-01 15:20:00,
2013-06-01 10:25:00,69.4,63.7,28.95,WSW,247,1.3,7.4,82,0.00,,,0.00,WUHU21623XXSP,2013-06-01 15:25:00,
2013-06-01 10:30:00,70.0,63.5,28.95,SSW,202,0.0,7.4,80,0.00,,,0.00,WUHU21623XXSP,2013-06-01 15:30:00,
2013-06-01 10:35:00,70.0,63.5,28.95,SSW,202,0.0,1.1,80,0.00,,,0.00,WUHU21623XXSP,2013-06-01 15:35:00,
2013-06-01 10:40:00,70.0,63.5,28.95,SSW,202,2.9,2.9,80,0.00,,,0.00,WUHU21623XXSP,2013-06-01 15:40:00,
2013-06-01 10:45:00,70.0,63.5,28.94,West,270,0.0,2.9,80,0.00,,,0.00,WUHU21623XXSP,2013-06-01 15:45:00,
2013-06-01 10:50:00,70.3,63.9,28.95,West,270,0.0,0.0,80,0.00,,,0.00,WUHU21623XXSP,2013-06-01 15:50:00,
2013-06-01 10:55:00,70.5,64.0,28.95,WSW,247,0.0,0.0,80,0.00,,,0.00,WUHU21623XXSP,2013-06-01 15:55:00,
2013-06-01 11:00:00,70.5,63.7,28.94,SW,225,0.0,0.0,79,0.00,,,0.00,WUHU21623XXSP,2013-06-01 16:00:00,
2013-06-01 11:05:00,70.7,63.8,28.94,SSW,202,0.0,0.0,79,0.00,,,0.00,WUHU21623XXSP,2013-06-01 16:05:00,
2013-06-01 11:10:00,70.9,64.0,28.94,SSW,202,0.0,0.0,79,0.00,,,0.00,WUHU21623XXSP,2013-06-01 16:10:00,
2013-06-01 11:15:00,72.0,65.1,28.94,West,270,0.4,0.4,79,0.00,,,0.00,WUHU21623XXSP,2013-06-01 16:15:00,
2013-06-01 11:20:00,72.7,65.4,28.94,WSW,247,2.5,2.5,78,0.00,,,0.00,WUHU21623XXSP,2013-06-01 16:20:00,
2013-06-01 11:25:00,73.2,65.2,28.94,West,270,0.0,2.5,76,0.00,,,0.00,WUHU21623XXSP,2013-06-01 16:25:00,
2013-06-01 11:30:00,73.2,64.5,28.94,SW,225,0.0,3.6,74,0.00,,,0.00,WUHU21623XXSP,2013-06-01 16:30:00,
2013-06-01 11:35:00,73.2,64.5,28.94,SSW,202,0.0,3.6,74,0.00,,,0.00,WUHU21623XXSP,2013-06-01 16:35:00,
2013-06-01 11:40:00,73.2,64.8,28.94,SW,225,2.7,2.7,75,0.00,,,0.00,WUHU21623XXSP,2013-06-01 16:40:00,
2013-06-01 11:45:00,73.2,64.8,28.94,WSW,247,3.8,3.8,73,0.00,,,0.00,WUHU21623XXSP,2013-06-01 16:45:00,
2013-06-01 11:50:00,73.2,64.1,28.95,SW,225,0.4,3.8,73,0.00,,,0.00,WUHU21623XXSP,2013-06-01 16:50:00,
2013-06-01 11:54:00,73.2,64.1,28.94,SW,225,0.0,0.4,73,0.00,,,0.00,WUHU21623XXSP,2013-06-01 16:54:00,
2013-06-01 11:59:00,73.9,64.4,28.94,SW,225,0.0,0.0,72,0.00,,,0.00,WUHU21623XXSP,2013-06-01 16:59:00,
2013-06-01 12:04:00,74.5,64.5,28.94,SW,225,0.0,0.0,71,0.00,,,0.00,WUHU21623XXSP,2013-06-01 17:04:00,
2013-06-01 12:09:00,75.0,65.0,28.94,West,270,0.7,0.7,71,0.00,,,0.00,WUHU21623XXSP,2013-06-01 17:09:00,
2013-06-01 12:14:00,75.4,64.9,28.94,WSW,247,4.0,4.0,70,0.00,,,0.00,WUHU21623XXSP,2013-06-01 17:14:00,
2013-06-01 12:19:00,75.7,65.3,28.94,SSW,202,0.0,4.0,70,0.00,,,0.00,WUHU21623XXSP,2013-06-01 17:19:00,
2013-06-01 12:24:00,75.9,65.0,28.94,West,270,1.6,5.6,69,0.00,,,0.00,WUHU21623XXSP,2013-06-01 17:24:00,
2013-06-01 12:29:00,75.9,65.0,28.94,West,270,0.0,5.6,69,0.00,,,0.00,WUHU21623XXSP,2013-06-01 17:29:00,
2013-06-01 12:34:00,76.3,64.9,28.94,SW,225,0.0,5.6,68,0.00,,,0.00,WUHU21623XXSP,2013-06-01 17:34:00,
2013-06-01 12:39:00,76.5,65.1,28.93,WSW,247,4.5,5.6,68,0.00,,,0.00,WUHU21623XXSP,2013-06-01 17:39:00,
2013-06-01 12:44:00,76.3,64.9,28.94,NNW,337,0.0,4.5,68,0.00,,,0.00,WUHU21623XXSP,2013-06-01 17:44:00,
2013-06-01 12:49:00,75.9,64.1,28.94,SSW,202,0.0,2.9,67,0.00,,,0.00,WUHU21623XXSP,2013-06-01 17:49:00,
2013-06-01 12:54:00,75.9,64.6,28.94,West,270,0.0,0.0,68,0.00,,,0.00,WUHU21623XXSP,2013-06-01 17:54:00,
2013-06-01 12:59:00,75.7,64.4,28.94,West,270,0.0,1.6,68,0.00,,,0.00,WUHU21623XXSP,2013-06-01 17:59:00,
2013-06-01 13:04:00,75.6,64.2,28.94,WSW,247,2.2,2.2,68,0.00,,,0.00,WUHU21623XXSP,2013-06-01 18:04:00,
2013-06-01 13:09:00,75.2,63.9,28.94,WSW,247,0.0,2.2,68,0.00,,,0.00,WUHU21623XXSP,2013-06-01 18:09:00,
2013-06-01 13:14:00,74.8,63.6,28.94,SW,225,0.0,3.4,68,0.00,,,0.00,WUHU21623XXSP,2013-06-01 18:14:00,
2013-06-01 13:19:00,74.8,64.0,28.94,South,180,0.0,3.4,69,0.00,,,0.00,WUHU21623XXSP,2013-06-01 18:19:00,
2013-06-01 13:24:00,75.0,64.1,28.94,West,270,0.0,0.0,69,0.00,,,0.00,WUHU21623XXSP,2013-06-01 18:24:00,
2013-06-01 13:29:00,75.7,64.4,28.94,SW,225,1.1,1.1,68,0.00,,,0.00,WUHU21623XXSP,2013-06-01 18:29:00,
2013-06-01 13:34:00,76.1,64.8,28.93,WNW,292,4.0,4.0,68,0.00,,,0.00,WUHU21623XXSP,2013-06-01 18:34:00,
2013-06-01 13:39:00,76.6,64.8,28.94,West,270,0.0,4.0,67,0.00,,,0.00,WUHU21623XXSP,2013-06-01 18:39:00,
2013-06-01 13:44:00,77.2,65.4,28.94,West,270,2.0,2.0,66,0.00,,,0.00,WUHU21623XXSP,2013-06-01 18:44:00,
2013-06-01 13:49:00,77.5,64.8,28.93,WNW,292,3.6,3.6,65,0.00,,,0.00,WUHU21623XXSP,2013-06-01 18:49:00,
2013-06-01 13:54:00,77.7,64.1,28.93,West,270,0.0,3.8,63,0.00,,,0.00,WUHU21623XXSP,2013-06-01 18:54:00,
2013-06-01 13:59:00,77.9,64.3,28.93,WSW,247,0.9,3.8,63,0.00,,,0.00,WUHU21623XXSP,2013-06-01 18:59:00,
2013-06-01 14:04:00,78.4,64.5,28.93,WSW,247,0.9,0.9,62,0.00,,,0.00,WUHU21623XXSP,2013-06-01 19:04:00,
2013-06-01 14:09:00,78.6,65.0,28.94,West,270,3.6,6.7,63,0.00,,,0.00,WUHU21623XXSP,2013-06-01 19:09:00,
2013-06-01 14:14:00,79.0,64.9,28.93,SW,225,0.2,6.7,62,0.00,,,0.00,WUHU21623XXSP,2013-06-01 19:14:00,
2013-06-01 14:19:00,79.3,65.2,28.93,West,270,0.0,3.6,62,0.00,,,0.00,WUHU21623XXSP,2013-06-01 19:19:00,
2013-06-01 14:24:00,79.7,65.1,28.93,SE,135,7.2,7.2,61,0.00,,,0.00,WUHU21623XXSP,2013-06-01 19:24:00,
2013-06-01 14:29:00,79.7,64.1,28.93,SW,225,0.9,7.2,58,0.00,,,0.00,WUHU21623XXSP,2013-06-01 19:29:00,
2013-06-01 14:34:00,79.5,64.0,28.93,West,270,0.0,0.9,59,0.00,,,0.00,WUHU21623XXSP,2013-06-01 19:34:00,
2013-06-01 14:39:00,79.5,64.0,28.93,South,180,7.2,7.2,59,0.00,,,0.00,WUHU21623XXSP,2013-06-01 19:39:00,
2013-06-01 14:44:00,79.7,64.0,28.93,West,270,0.0,7.2,58,0.00,,,0.00,WUHU21623XXSP,2013-06-01 19:44:00,
2013-06-01 14:49:00,79.5,64.1,28.93,West,270,0.0,1.1,59,0.00,,,0.00,WUHU21623XXSP,2013-06-01 19:49:00,
2013-06-01 14:54:00,79.3,63.8,28.93,SW,225,0.7,2.9,59,0.00,,,0.00,WUHU21623XXSP,2013-06-01 19:54:00,
2013-06-01 14:59:00,78.6,63.2,28.93,SW,225,0.0,2.9,59,0.00,,,0.00,WUHU21623XXSP,2013-06-01 19:59:00,
2013-06-01 15:04:00,78.8,63.2,28.92,SW,225,0.0,2.9,59,0.00,,,0.00,WUHU21623XXSP,2013-06-01 20:04:00,
2013-06-01 15:09:00,79.2,63.7,28.93,West,270,1.1,1.1,59,0.00,,,0.00,WUHU21623XXSP,2013-06-01 20:09:00,
2013-06-01 15:14:00,79.2,63.1,28.93,SW,225,0.0,1.1,58,0.00,,,0.00,WUHU21623XXSP,2013-06-01 20:14:00,
2013-06-01 15:19:00,79.5,63.3,28.93,WSW,247,3.6,6.7,57,0.00,,,0.00,WUHU21623XXSP,2013-06-01 20:19:00,
2013-06-01 15:24:00,79.5,62.4,28.93,SW,225,1.6,6.7,56,0.00,,,0.00,WUHU21623XXSP,2013-06-01 20:24:00,
2013-06-01 15:29:00,79.0,61.4,28.92,NW,315,0.0,3.6,55,0.00,,,0.00,WUHU21623XXSP,2013-06-01 20:29:00,
2013-06-01 15:34:00,78.4,61.4,28.93,SW,225,3.6,6.7,56,0.00,,,0.00,WUHU21623XXSP,2013-06-01 20:34:00,
2013-06-01 15:39:00,77.9,61.1,28.93,SW,225,3.6,6.7,57,0.00,,,0.00,WUHU21623XXSP,2013-06-01 20:39:00,
2013-06-01 15:44:00,77.5,59.5,28.93,NNW,337,4.7,4.7,54,0.00,,,0.00,WUHU21623XXSP,2013-06-01 20:44:00,
2013-06-01 15:49:00,77.4,59.9,28.93,WNW,292,6.7,6.7,55,0.00,,,0.00,WUHU21623XXSP,2013-06-01 20:49:00,
2013-06-01 15:54:00,76.8,58.9,28.94,WNW,292,2.0,6.7,54,0.00,,,0.00,WUHU21623XXSP,2013-06-01 20:54:00,
2013-06-01 15:59:00,76.5,59.1,28.94,WSW,247,4.9,4.9,55,0.00,,,0.00,WUHU21623XXSP,2013-06-01 20:59:00,
2013-06-01 16:04:00,75.9,58.6,28.94,NNW,337,0.0,6.9,55,0.00,,,0.00,WUHU21623XXSP,2013-06-01 21:04:00,
2013-06-01 16:09:00,75.7,58.9,28.94,WSW,247,0.9,6.9,56,0.00,,,0.00,WUHU21623XXSP,2013-06-01 21:09:00,
2013-06-01 16:14:00,75.6,58.2,28.94,NW,315,1.6,1.6,55,0.00,,,0.00,WUHU21623XXSP,2013-06-01 21:14:00,
2013-06-01 16:19:00,75.0,58.2,28.94,WSW,247,3.4,3.4,56,0.00,,,0.00,WUHU21623XXSP,2013-06-01 21:19:00,
2013-06-01 16:24:00,74.5,57.7,28.94,WNW,292,3.8,3.8,56,0.00,,,0.00,WUHU21623XXSP,2013-06-01 21:24:00,
2013-06-01 16:29:00,74.1,57.8,28.95,WNW,292,3.8,3.8,57,0.00,,,0.00,WUHU21623XXSP,2013-06-01 21:29:00,
2013-06-01 16:34:00,74.1,57.8,28.95,NW,315,0.0,5.6,57,0.00,,,0.00,WUHU21623XXSP,2013-06-01 21:34:00,
2013-06-01 16:39:00,74.1,58.4,28.95,SSW,202,4.7,5.6,58,0.00,,,0.00,WUHU21623XXSP,2013-06-01 21:39:00,
2013-06-01 16:44:00,74.1,58.4,28.94,NW,315,1.6,4.7,58,0.00,,,0.00,WUHU21623XXSP,2013-06-01 21:44:00,
2013-06-01 16:49:00,74.1,58.9,28.94,NW,315,5.6,5.6,59,0.00,,,0.00,WUHU21623XXSP,2013-06-01 21:49:00,
2013-06-01 16:54:00,74.5,59.2,28.95,WSW,247,2.7,5.6,59,0.00,,,0.00,WUHU21623XXSP,2013-06-01 21:54:00,
2013-06-01 16:59:00,74.3,59.0,28.95,West,270,9.6,9.6,59,0.00,,,0.00,WUHU21623XXSP,2013-06-01 21:59:00,
2013-06-01 17:04:00,74.5,59.2,28.95,WNW,292,0.0,9.6,59,0.00,,,0.00,WUHU21623XXSP,2013-06-01 22:04:00,
2013-06-01 17:09:00,74.8,59.1,28.95,West,270,0.0,0.0,58,0.00,,,0.00,WUHU21623XXSP,2013-06-01 22:09:00,
2013-06-01 17:14:00,74.8,59.1,28.95,West,270,1.6,6.9,58,0.00,,,0.00,WUHU21623XXSP,2013-06-01 22:14:00,
2013-06-01 17:19:00,74.3,58.5,28.95,West,270,0.0,6.9,58,0.00,,,0.00,WUHU21623XXSP,2013-06-01 22:19:00,
2013-06-01 17:24:00,73.6,58.3,28.95,NNW,337,3.1,3.1,59,0.00,,,0.00,WUHU21623XXSP,2013-06-01 22:24:00,
2013-06-01 17:29:00,73.6,58.8,28.95,WSW,247,0.0,3.1,60,0.00,,,0.00,WUHU21623XXSP,2013-06-01 22:29:00,
2013-06-01 17:34:00,73.6,58.8,28.95,SW,225,1.6,2.7,60,0.00,,,0.00,WUHU21623XXSP,2013-06-01 22:34:00,
2013-06-01 17:39:00,73.2,58.5,28.95,NW,315,0.7,1.6,60,0.00,,,0.00,WUHU21623XXSP,2013-06-01 22:39:00,
2013-06-01 17:44:00,73.2,58.9,28.95,WNW,292,3.4,3.8,61,0.00,,,0.00,WUHU21623XXSP,2013-06-01 22:44:00,
2013-06-01 17:49:00,73.2,58.0,28.96,WNW,292,7.2,9.6,59,0.00,,,0.00,WUHU21623XXSP,2013-06-01 22:49:00,
2013-06-01 17:54:00,73.2,58.5,28.96,North,0,2.0,9.6,60,0.00,,,0.00,WUHU21623XXSP,2013-06-01 22:54:00,
2013-06-01 17:59:00,73.4,58.6,28.96,West,270,3.8,3.8,60,0.00,,,0.00,WUHU21623XXSP,2013-06-01 22:59:00,
2013-06-01 18:04:00,73.2,58.0,28.96,NNW,337,2.2,3.8,59,0.00,,,0.00,WUHU21623XXSP,2013-06-01 23:04:00,
2013-06-01 18:09:00,73.2,58.0,28.96,NW,315,2.7,6.9,59,0.00,,,0.00,WUHU21623XXSP,2013-06-01 23:09:00,
2013-06-01 18:14:00,72.9,58.6,28.96,West,270,3.6,6.9,61,0.00,,,0.00,WUHU21623XXSP,2013-06-01 23:14:00,
2013-06-01 18:19:00,72.7,58.4,28.96,North,0,0.0,5.8,61,0.00,,,0.00,WUHU21623XXSP,2013-06-01 23:19:00,
2013-06-01 18:24:00,72.7,58.9,28.97,NW,315,5.1,5.1,62,0.00,,,0.00,WUHU21623XXSP,2013-06-01 23:24:00,
2013-06-01 18:29:00,72.3,58.5,28.97,NNW,337,0.0,5.1,62,0.00,,,0.00,WUHU21623XXSP,2013-06-01 23:29:00,
2013-06-01 18:34:00,72.0,58.2,28.97,WNW,292,3.1,5.4,62,0.00,,,0.00,WUHU21623XXSP,2013-06-01 23:34:00,
2013-06-01 18:39:00,71.8,58.0,28.97,WNW,292,3.8,5.4,62,0.00,,,0.00,WUHU21623XXSP,2013-06-01 23:39:00,
2013-06-01 18:44:00,71.4,58.1,28.97,WNW,292,0.2,6.7,63,0.00,,,0.00,WUHU21623XXSP,2013-06-01 23:44:00,
2013-06-01 18:49:00,70.7,57.5,28.97,WSW,247,4.7,6.7,63,0.00,,,0.00,WUHU21623XXSP,2013-06-01 23:49:00,
2013-06-01 18:54:00,70.2,57.4,28.97,NW,315,0.0,4.7,64,0.00,,,0.00,WUHU21623XXSP,2013-06-01 23:54:00,
2013-06-01 18:59:00,69.6,57.3,28.98,WNW,292,7.6,7.6,65,0.00,,,0.00,WUHU21623XXSP,2013-06-01 23:59:00,
2013-06-01 19:04:00,69.3,56.9,28.98,NW,315,0.0,7.6,65,0.00,,,0.00,WUHU21623XXSP,2013-06-02 00:04:00,
2013-06-01 19:09:00,68.9,57.0,28.98,West,270,3.1,3.1,66,0.00,,,0.00,WUHU21623XXSP,2013-06-02 00:09:00,
2013-06-01 19:14:00,68.7,57.3,28.98,WNW,292,3.4,3.4,67,0.00,,,0.00,WUHU21623XXSP,2013-06-02 00:14:00,
2013-06-01 19:19:00,68.9,57.5,28.98,WNW,292,1.6,5.6,67,0.00,,,0.00,WUHU21623XXSP,2013-06-02 00:19:00,
2013-06-01 19:24:00,69.1,57.6,28.97,West,270,2.7,5.6,67,0.00,,,0.00,WUHU21623XXSP,2013-06-02 00:24:00,
2013-06-01 19:29:00,69.1,57.6,28.98,WSW,247,0.0,2.7,67,0.00,,,0.00,WUHU21623XXSP,2013-06-02 00:29:00,
2013-06-01 19:34:00,68.9,57.5,28.98,WNW,292,4.5,4.5,67,0.00,,,0.00,WUHU21623XXSP,2013-06-02 00:34:00,
2013-06-01 19:39:00,68.7,56.9,28.98,West,270,3.1,4.5,66,0.00,,,0.00,WUHU21623XXSP,2013-06-02 00:39:00,
2013-06-01 19:44:00,68.5,57.1,28.98,NNW,337,6.3,6.3,67,0.00,,,0.00,WUHU21623XXSP,2013-06-02 00:44:00,
2013-06-01 19:49:00,68.2,56.8,28.98,WNW,292,0.0,6.3,67,0.00,,,0.00,WUHU21623XXSP,2013-06-02 00:49:00,
2013-06-01 19:54:00,67.8,56.9,28.99,WSW,247,3.1,6.3,68,0.00,,,0.00,WUHU21623XXSP,2013-06-02 00:54:00,
2013-06-01 19:59:00,67.5,56.5,28.98,WNW,292,0.0,3.1,68,0.00,,,0.00,WUHU21623XXSP,2013-06-02 00:59:00,
2013-06-01 20:04:00,67.3,56.8,28.99,WSW,247,0.0,3.1,69,0.00,,,0.00,WUHU21623XXSP,2013-06-02 01:04:00,
2013-06-01 20:09:00,67.1,56.6,28.99,West,270,0.0,0.0,69,0.00,,,0.00,WUHU21623XXSP,2013-06-02 01:09:00,
2013-06-01 20:14:00,66.9,56.8,28.99,West,270,0.0,0.0,70,0.00,,,0.00,WUHU21623XXSP,2013-06-02 01:14:00,
2013-06-01 20:19:00,66.7,56.7,28.98,West,270,0.0,0.0,71,0.00,,,0.00,WUHU21623XXSP,2013-06-02 01:19:00,
2013-06-01 20:24:00,66.7,57.0,28.99,WNW,292,1.1,1.1,71,0.00,,,0.00,WUHU21623XXSP,2013-06-02 01:24:00,
2013-06-01 20:29:00,66.4,56.9,28.99,West,270,0.0,1.1,71,0.00,,,0.00,WUHU21623XXSP,2013-06-02 01:29:00,
2013-06-01 20:34:00,66.4,56.7,28.99,West,270,0.0,0.0,71,0.00,,,0.00,WUHU21623XXSP,2013-06-02 01:34:00,
2013-06-01 20:39:00,66.2,56.9,28.99,West,270,0.0,0.0,72,0.00,,,0.00,WUHU21623XXSP,2013-06-02 01:39:00,
2013-06-01 20:44:00,66.0,56.7,28.99,WSW,247,0.0,0.0,72,0.00,,,0.00,WUHU21623XXSP,2013-06-02 01:44:00,
2013-06-01 20:49:00,66.0,56.7,29.00,West,270,0.0,0.0,72,0.00,,,0.00,WUHU21623XXSP,2013-06-02 01:49:00,
2013-06-01 20:54:00,66.0,56.7,29.00,West,270,0.0,0.0,73,0.00,,,0.00,WUHU21623XXSP,2013-06-02 01:54:00,
2013-06-01 20:59:00,65.8,56.9,29.00,WSW,247,0.0,0.0,73,0.00,,,0.00,WUHU21623XXSP,2013-06-02 01:59:00,
2013-06-01 21:04:00,65.7,56.8,29.00,West,270,1.6,1.6,73,0.00,,,0.00,WUHU21623XXSP,2013-06-02 02:04:00,
2013-06-01 21:09:00,65.5,56.6,29.00,WSW,247,0.0,1.6,73,0.00,,,0.00,WUHU21623XXSP,2013-06-02 02:09:00,
2013-06-01 21:14:00,65.5,56.6,29.00,WSW,247,0.0,0.0,73,0.00,,,0.00,WUHU21623XXSP,2013-06-02 02:14:00,
2013-06-01 21:19:00,65.3,56.8,29.01,WSW,247,0.0,0.0,74,0.00,,,0.00,WUHU21623XXSP,2013-06-02 02:19:00,
2013-06-01 21:24:00,65.3,56.8,29.01,WSW,247,0.0,0.0,74,0.00,,,0.00,WUHU21623XXSP,2013-06-02 02:24:00,
2013-06-01 21:29:00,65.1,56.6,29.01,WSW,247,0.0,0.0,74,0.00,,,0.00,WUHU21623XXSP,2013-06-02 02:29:00,
2013-06-01 21:34:00,65.1,56.6,29.01,West,270,0.0,0.0,74,0.00,,,0.00,WUHU21623XXSP,2013-06-02 02:34:00,
2013-06-01 21:39:00,65.1,56.6,29.01,WSW,247,0.0,0.0,74,0.00,,,0.00,WUHU21623XXSP,2013-06-02 02:39:00,
2013-06-01 21:44:00,65.1,56.6,29.02,WSW,247,0.0,0.0,74,0.00,,,0.00,WUHU21623XXSP,2013-06-02 02:44:00,
2013-06-01 21:49:00,65.1,57.0,29.02,SW,225,2.5,2.5,75,0.00,,,0.00,WUHU21623XXSP,2013-06-02 02:49:00,
2013-06-01 21:54:00,65.1,57.0,29.02,West,270,0.0,2.5,75,0.00,,,0.00,WUHU21623XXSP,2013-06-02 02:54:00,
2013-06-01 21:59:00,64.9,56.8,29.02,West,270,0.0,0.0,75,0.00,,,0.00,WUHU21623XXSP,2013-06-02 02:59:00,
2013-06-01 22:04:00,64.9,57.2,29.02,West,270,0.0,0.0,76,0.00,,,0.00,WUHU21623XXSP,2013-06-02 03:04:00,
2013-06-01 22:09:00,64.9,57.2,29.03,West,270,0.0,0.0,76,0.00,,,0.00,WUHU21623XXSP,2013-06-02 03:09:00,
2013-06-01 22:14:00,64.9,57.2,29.03,SW,225,0.0,0.0,76,0.00,,,0.00,WUHU21623XXSP,2013-06-02 03:14:00,
2013-06-01 22:19:00,64.8,57.0,29.03,SW,225,0.0,0.0,76,0.00,,,0.00,WUHU21623XXSP,2013-06-02 03:19:00,
2013-06-01 22:24:00,64.8,57.0,29.03,SW,225,0.0,0.0,76,0.00,,,0.00,WUHU21623XXSP,2013-06-02 03:24:00,
2013-06-01 22:29:00,64.8,57.0,29.03,West,270,0.0,0.0,76,0.00,,,0.00,WUHU21623XXSP,2013-06-02 03:29:00,
2013-06-01 22:34:00,64.8,57.0,29.03,WSW,247,0.0,0.0,76,0.00,,,0.00,WUHU21623XXSP,2013-06-02 03:34:00,
2013-06-01 22:39:00,64.8,57.0,29.03,SW,225,4.5,4.5,76,0.00,,,0.00,WUHU21623XXSP,2013-06-02 03:39:00,
2013-06-01 22:43:00,64.8,57.0,29.03,SW,225,4.5,4.5,76,0.00,,,0.00,WUHU21623XXSP,2013-06-02 03:43:00,
2013-06-01 22:48:00,64.8,57.0,29.03,WSW,247,0.0,4.5,76,0.00,,,0.00,WUHU21623XXSP,2013-06-02 03:48:00,
2013-06-01 22:53:00,64.8,57.0,29.03,SSW,202,4.7,4.7,76,0.00,,,0.00,WUHU21623XXSP,2013-06-02 03:53:00,
2013-06-01 22:58:00,64.8,57.0,29.03,West,270,0.0,4.7,76,0.00,,,0.00,WUHU21623XXSP,2013-06-02 03:58:00,
2013-06-01 23:01:00,64.8,57.0,29.03,WSW,247,0.0,4.7,76,0.00,,,0.00,WUHU21623XXSP,2013-06-02 04:01:00,
2013-06-01 23:06:00,64.6,56.8,29.04,West,270,0.7,0.7,76,0.00,,,0.00,WUHU21623XXSP,2013-06-02 04:06:00,
2013-06-01 23:57:00,64.0,57.1,29.04,WSW,248,0.0,0.0,78,0.00,,,0.00,WUHU21623XXSP,2013-06-02 04:57:00,